KAL1411 RKSI-RKPK

Flight info

Callsign KAL1411
Flight time 0h 39m
Altitude 23000
Route OSPOT2C/15R OSPOT Y782 TGU Z83 MASTA GAYHA3
Aircraft B77W/H-SDE1E2E3FGHIJ2J3J4J5M1RWXY/LB1D1

Departure

Time 2026-05-06 14:25
Airport Incheon International Airport (RKSI)

Arrival

Time 2026-05-06 15:04
Airport Gimhae International Airport (RKPK)
Time Latitude Longitude Altitude Speed Heading
2026-05-06 14:03 37.46615 126.43004 38 ft 0 kts 51°
2026-05-06 14:12 37.46610 126.42997 38 ft 3 kts 51°
2026-05-06 14:13 37.46598 126.42977 36 ft 3 kts 51°
2026-05-06 14:13 37.46585 126.42957 36 ft 3 kts 51°
2026-05-06 14:13 37.46573 126.42938 35 ft 2 kts 51°
2026-05-06 14:13 37.46563 126.42923 35 ft 3 kts 33°
2026-05-06 14:14 37.46548 126.42916 36 ft 3 kts 340°
2026-05-06 14:14 37.46532 126.42929 36 ft 3 kts 321°
2026-05-06 14:14 37.46523 126.42937 34 ft 0 kts 325°
2026-05-06 14:17 37.46542 126.42920 35 ft 9 kts 324°
2026-05-06 14:17 37.46623 126.42846 38 ft 16 kts 324°
2026-05-06 14:17 37.46702 126.42774 38 ft 12 kts 323°
2026-05-06 14:18 37.46772 126.42700 38 ft 16 kts 318°
2026-05-06 14:18 37.46842 126.42619 38 ft 12 kts 316°
2026-05-06 14:18 37.46906 126.42549 38 ft 13 kts 322°
2026-05-06 14:18 37.46967 126.42491 38 ft 9 kts 323°
2026-05-06 14:19 37.47014 126.42448 38 ft 9 kts 326°
2026-05-06 14:19 37.47055 126.42420 38 ft 4 kts 337°
2026-05-06 14:19 37.47068 126.42417 38 ft 3 kts 353°
2026-05-06 14:19 37.47096 126.42428 38 ft 2 kts 34°
2026-05-06 14:20 37.47110 126.42451 38 ft 7 kts 55°
2026-05-06 14:20 37.47165 126.42551 38 ft 20 kts 54°
2026-05-06 14:20 37.47263 126.42726 37 ft 29 kts 54°
2026-05-06 14:20 37.47389 126.42947 37 ft 29 kts 53°
2026-05-06 14:21 37.47497 126.43139 37 ft 24 kts 56°
2026-05-06 14:21 37.47582 126.43294 37 ft 19 kts 54°
2026-05-06 14:21 37.47653 126.43415 37 ft 15 kts 53°
2026-05-06 14:21 37.47705 126.43507 37 ft 11 kts 55°
2026-05-06 14:22 37.47748 126.43566 37 ft 8 kts 22°
2026-05-06 14:22 37.47792 126.43555 37 ft 6 kts 333°
2026-05-06 14:22 37.47854 126.43504 37 ft 16 kts 325°
2026-05-06 14:22 37.47936 126.43431 37 ft 14 kts 324°
2026-05-06 14:23 37.48008 126.43399 37 ft 10 kts 14°
2026-05-06 14:23 37.48055 126.43449 37 ft 8 kts 50°
2026-05-06 14:23 37.48086 126.43504 37 ft 7 kts 56°
2026-05-06 14:23 37.48120 126.43567 37 ft 12 kts 56°
2026-05-06 14:24 37.48156 126.43634 37 ft 6 kts 65°
2026-05-06 14:24 37.48150 126.43653 37 ft 1 kts 126°
2026-05-06 14:24 37.48110 126.43696 37 ft 10 kts 144°
2026-05-06 14:24 37.47994 126.43799 37 ft 37 kts 144°
2026-05-06 14:25 37.47598 126.44152 37 ft 107 kts 144°
2026-05-06 14:25 37.46803 126.44861 39 ft 170 kts 144°
2026-05-06 14:25 37.45763 126.45783 394 ft 188 kts 146°
2026-05-06 14:25 37.44732 126.46803 1042 ft 191 kts 126°
2026-05-06 14:26 37.44070 126.48235 1693 ft 190 kts 125°
2026-05-06 14:26 37.43244 126.49538 2316 ft 191 kts 131°
2026-05-06 14:26 37.42372 126.50810 2919 ft 193 kts 131°
2026-05-06 14:26 37.41488 126.52110 3437 ft 202 kts 130°
2026-05-06 14:27 37.40521 126.53542 3655 ft 228 kts 130°
2026-05-06 14:27 37.39433 126.55160 3868 ft 255 kts 130°
2026-05-06 14:27 37.38253 126.56920 4286 ft 276 kts 130°
2026-05-06 14:27 37.36848 126.58701 4463 ft 299 kts 147°
2026-05-06 14:28 37.34861 126.59707 4660 ft 318 kts 164°
2026-05-06 14:28 37.32821 126.60885 5032 ft 331 kts 141°
2026-05-06 14:28 37.31365 126.63130 5738 ft 335 kts 121°
2026-05-06 14:28 37.30158 126.65674 6495 ft 342 kts 121°
2026-05-06 14:29 37.28892 126.68214 7403 ft 344 kts 123°
2026-05-06 14:29 37.27575 126.70741 8294 ft 347 kts 124°
2026-05-06 14:29 37.26215 126.73267 9121 ft 352 kts 124°
2026-05-06 14:29 37.24816 126.75812 9911 ft 356 kts 125°
2026-05-06 14:30 37.23390 126.78377 10704 ft 361 kts 125°
2026-05-06 14:30 37.21937 126.80974 11542 ft 366 kts 125°
2026-05-06 14:30 37.20463 126.83599 12462 ft 370 kts 125°
2026-05-06 14:30 37.18972 126.86251 13409 ft 375 kts 125°
2026-05-06 14:31 37.17461 126.88936 14318 ft 379 kts 125°
2026-05-06 14:31 37.15929 126.91656 15187 ft 384 kts 125°
2026-05-06 14:31 37.14377 126.94411 16050 ft 389 kts 125°
2026-05-06 14:31 37.12805 126.97199 16867 ft 394 kts 125°
2026-05-06 14:32 37.11199 127.00013 17698 ft 399 kts 127°
2026-05-06 14:32 37.09347 127.02623 18492 ft 403 kts 136°
2026-05-06 14:32 37.07198 127.04908 19273 ft 408 kts 144°
2026-05-06 14:32 37.04806 127.06848 20007 ft 412 kts 149°
2026-05-06 14:33 37.02327 127.08692 20717 ft 417 kts 149°
2026-05-06 14:33 36.99825 127.10572 21415 ft 422 kts 149°
2026-05-06 14:33 36.97310 127.12492 22118 ft 426 kts 148°
2026-05-06 14:33 36.95640 127.13794 22563 ft 428 kts 146°
2026-05-06 14:34 36.93283 127.16118 23034 ft 435 kts 137°
2026-05-06 14:34 36.91258 127.18913 22989 ft 431 kts 127°
2026-05-06 14:34 36.89655 127.22036 22998 ft 425 kts 118°
2026-05-06 14:34 36.88245 127.25270 23007 ft 424 kts 119°
2026-05-06 14:35 36.86319 127.29522 23005 ft 425 kts 120°
2026-05-06 14:35 36.85319 127.31673 23005 ft 426 kts 121°
2026-05-06 14:35 36.83110 127.35598 23005 ft 426 kts 129°
2026-05-06 14:35 36.81115 127.38335 23002 ft 426 kts 136°
2026-05-06 14:36 36.78985 127.40903 23006 ft 426 kts 136°
2026-05-06 14:36 36.76848 127.43472 23005 ft 426 kts 136°
2026-05-06 14:36 36.74728 127.46050 23004 ft 426 kts 136°
2026-05-06 14:36 36.72613 127.48640 23000 ft 426 kts 135°
2026-05-06 14:37 36.70533 127.51194 22999 ft 425 kts 135°
2026-05-06 14:37 36.68426 127.53774 23000 ft 425 kts 135°
2026-05-06 14:37 36.66319 127.56351 22997 ft 424 kts 136°
2026-05-06 14:37 36.64213 127.58924 23001 ft 424 kts 136°
2026-05-06 14:38 36.62109 127.61493 23001 ft 424 kts 136°
2026-05-06 14:38 36.60004 127.64063 23002 ft 424 kts 136°
2026-05-06 14:38 36.57899 127.66629 23002 ft 424 kts 136°
2026-05-06 14:38 36.55794 127.69194 23001 ft 424 kts 136°
2026-05-06 14:39 36.53700 127.71745 23001 ft 424 kts 136°
2026-05-06 14:39 36.51581 127.74324 23003 ft 424 kts 136°
2026-05-06 14:39 36.49472 127.76888 23002 ft 424 kts 136°
2026-05-06 14:39 36.48076 127.78585 23000 ft 424 kts 136°
2026-05-06 14:40 36.45966 127.81146 23001 ft 424 kts 136°
2026-05-06 14:40 36.43143 127.84570 23002 ft 424 kts 136°
2026-05-06 14:40 36.41743 127.86266 23001 ft 424 kts 136°
2026-05-06 14:40 36.39604 127.88859 23002 ft 424 kts 136°
2026-05-06 14:41 36.37518 127.91384 22998 ft 425 kts 136°
2026-05-06 14:41 36.35407 127.93940 23002 ft 425 kts 136°
2026-05-06 14:41 36.33293 127.96498 23003 ft 425 kts 136°
2026-05-06 14:41 36.31181 127.99051 23001 ft 425 kts 136°
2026-05-06 14:42 36.29063 128.01609 23001 ft 425 kts 136°
2026-05-06 14:42 36.26944 128.04164 23001 ft 425 kts 136°
2026-05-06 14:42 36.24822 128.06718 22999 ft 425 kts 136°
2026-05-06 14:42 36.22702 128.09267 23007 ft 425 kts 136°
2026-05-06 14:43 36.20581 128.11816 23005 ft 425 kts 136°
2026-05-06 14:43 36.18461 128.14362 23001 ft 425 kts 136°
2026-05-06 14:43 36.16622 128.16570 22999 ft 424 kts 136°
2026-05-06 14:43 36.14621 128.18971 23001 ft 424 kts 136°
2026-05-06 14:44 36.12510 128.21503 22984 ft 420 kts 136°
2026-05-06 14:44 36.10348 128.23871 22909 ft 410 kts 143°
2026-05-06 14:44 36.07994 128.25791 22791 ft 401 kts 150°
2026-05-06 14:45 36.02991 128.28617 22121 ft 393 kts 158°
2026-05-06 14:45 36.00463 128.29865 21685 ft 390 kts 158°
2026-05-06 14:45 35.97951 128.31111 21255 ft 387 kts 158°
2026-05-06 14:45 35.95461 128.32352 20819 ft 385 kts 158°
2026-05-06 14:46 35.92983 128.33592 20373 ft 383 kts 158°
2026-05-06 14:46 35.90525 128.34824 19946 ft 380 kts 158°
2026-05-06 14:46 35.88082 128.36050 19526 ft 378 kts 158°
2026-05-06 14:46 35.85657 128.37268 19069 ft 375 kts 158°
2026-05-06 14:47 35.83243 128.38479 18645 ft 373 kts 158°
2026-05-06 14:47 35.80849 128.39681 18219 ft 371 kts 158°
2026-05-06 14:47 35.78463 128.40877 17788 ft 369 kts 158°
2026-05-06 14:47 35.76094 128.42064 17354 ft 366 kts 158°
2026-05-06 14:48 35.73739 128.43244 16924 ft 364 kts 158°
2026-05-06 14:48 35.71429 128.44400 16501 ft 362 kts 158°
2026-05-06 14:48 35.69103 128.45563 16076 ft 360 kts 158°
2026-05-06 14:48 35.66785 128.46721 15651 ft 358 kts 158°
2026-05-06 14:49 35.64483 128.47871 15231 ft 356 kts 158°
2026-05-06 14:49 35.62194 128.49014 14809 ft 354 kts 158°
2026-05-06 14:49 35.59916 128.50151 14387 ft 352 kts 158°
2026-05-06 14:49 35.57656 128.51278 13971 ft 350 kts 158°
2026-05-06 14:50 35.55399 128.52403 13555 ft 348 kts 158°
2026-05-06 14:50 35.53162 128.53517 13135 ft 347 kts 158°
2026-05-06 14:50 35.50928 128.54628 12720 ft 345 kts 158°
2026-05-06 14:50 35.48707 128.55730 12317 ft 343 kts 159°
2026-05-06 14:51 35.46449 128.56634 11906 ft 341 kts 167°
2026-05-06 14:51 35.44141 128.57258 11506 ft 338 kts 168°
2026-05-06 14:51 35.41851 128.57849 11103 ft 333 kts 168°
2026-05-06 14:51 35.39641 128.58425 10701 ft 314 kts 168°
2026-05-06 14:52 35.37567 128.58976 10242 ft 298 kts 168°
2026-05-06 14:52 35.35573 128.59513 9703 ft 289 kts 168°
2026-05-06 14:52 35.33604 128.60048 9232 ft 291 kts 168°
2026-05-06 14:52 35.31645 128.60582 8994 ft 286 kts 168°
2026-05-06 14:53 35.29720 128.61108 8772 ft 280 kts 168°
2026-05-06 14:53 35.27847 128.61620 8632 ft 272 kts 168°
2026-05-06 14:53 35.26024 128.62119 8482 ft 264 kts 168°
2026-05-06 14:53 35.24251 128.62603 8262 ft 259 kts 168°
2026-05-06 14:54 35.22498 128.63071 7970 ft 256 kts 171°
2026-05-06 14:54 35.20729 128.63188 7503 ft 255 kts 183°
2026-05-06 14:54 35.18952 128.63120 7193 ft 254 kts 180°
2026-05-06 14:54 35.17218 128.63208 7062 ft 244 kts 175°
2026-05-06 14:55 35.15560 128.63477 6814 ft 240 kts 170°
2026-05-06 14:55 35.13914 128.63919 6349 ft 245 kts 166°
2026-05-06 14:55 35.12260 128.64509 5895 ft 250 kts 163°
2026-05-06 14:55 35.10590 128.65169 5415 ft 255 kts 161°
2026-05-06 14:56 35.08952 128.65978 4945 ft 250 kts 155°
2026-05-06 14:56 35.07452 128.66961 4476 ft 240 kts 149°
2026-05-06 14:56 35.06084 128.68055 4103 ft 228 kts 145°
2026-05-06 14:56 35.04833 128.69201 3997 ft 226 kts 143°
2026-05-06 14:57 35.03591 128.70390 4008 ft 227 kts 140°
2026-05-06 14:57 35.02428 128.71678 3993 ft 223 kts 131°
2026-05-06 14:57 35.01764 128.73354 4017 ft 223 kts 99°
2026-05-06 14:57 35.01826 128.75243 3986 ft 226 kts 78°
2026-05-06 14:58 35.02159 128.77110 3787 ft 221 kts 70°
2026-05-06 14:58 35.03070 128.78484 3566 ft 205 kts 30°
2026-05-06 14:58 35.04292 128.79257 3364 ft 193 kts 29°
2026-05-06 14:58 35.05417 128.80104 3116 ft 187 kts 33°
2026-05-06 14:59 35.06498 128.81009 2890 ft 189 kts 35°
2026-05-06 14:59 35.07564 128.81950 2674 ft 189 kts 36°
2026-05-06 14:59 35.08608 128.82897 2582 ft 186 kts 36°
2026-05-06 14:59 35.09649 128.83855 2547 ft 188 kts 37°
2026-05-06 15:00 35.10681 128.84810 2527 ft 185 kts 37°
2026-05-06 15:00 35.11669 128.85742 2511 ft 175 kts 37°
2026-05-06 15:00 35.12619 128.86647 2280 ft 172 kts 37°
2026-05-06 15:00 35.13550 128.87538 1967 ft 168 kts 37°
2026-05-06 15:01 35.14459 128.88407 1707 ft 162 kts 37°
2026-05-06 15:01 35.15352 128.89259 1680 ft 165 kts 36°
2026-05-06 15:01 35.16415 128.89688 1608 ft 164 kts 353°
2026-05-06 15:01 35.17549 128.89446 1620 ft 167 kts 351°
2026-05-06 15:02 35.18704 128.89249 1511 ft 167 kts 352°
2026-05-06 15:02 35.19846 128.89097 1423 ft 165 kts 354°
2026-05-06 15:02 35.21001 128.89006 1172 ft 167 kts
2026-05-06 15:02 35.22009 128.89549 1070 ft 163 kts 48°
2026-05-06 15:03 35.22377 128.90848 991 ft 167 kts 86°
2026-05-06 15:03 35.22395 128.92279 724 ft 170 kts 101°
2026-05-06 15:03 35.21722 128.93364 390 ft 162 kts 161°
2026-05-06 15:03 35.20612 128.93423 297 ft 162 kts 181°
2026-05-06 15:04 35.19482 128.93507 179 ft 163 kts 175°
2026-05-06 15:04 35.18350 128.93644 34 ft 158 kts 174°
2026-05-06 15:04 35.17402 128.93764 31 ft 101 kts 173°
2026-05-06 15:04 35.16899 128.93832 29 ft 48 kts 175°
2026-05-06 15:05 35.16633 128.93865 27 ft 22 kts 172°
2026-05-06 15:05 35.16544 128.93928 27 ft 11 kts 109°
2026-05-06 15:05 35.16540 128.94009 28 ft 8 kts 83°
2026-05-06 15:05 35.16548 128.94072 29 ft 7 kts 78°
2026-05-06 15:06 35.16559 128.94122 28 ft 6 kts 73°
2026-05-06 15:06 35.16570 128.94159 28 ft 3 kts 69°
2026-05-06 15:06 35.16577 128.94175 28 ft 7 kts 56°
2026-05-06 15:06 35.16628 128.94232 28 ft 10 kts 40°
2026-05-06 15:07 35.16693 128.94289 28 ft 12 kts 33°
2026-05-06 15:07 35.16763 128.94327 28 ft 10 kts 11°
2026-05-06 15:07 35.16829 128.94334 28 ft 9 kts 359°
2026-05-06 15:07 35.16878 128.94356 28 ft 7 kts 46°
2026-05-06 15:08 35.16902 128.94437 28 ft 15 kts 77°
2026-05-06 15:08 35.16928 128.94556 28 ft 14 kts 73°
2026-05-06 15:08 35.16940 128.94651 28 ft 10 kts 97°
2026-05-06 15:08 35.16954 128.94717 28 ft 7 kts 38°
2026-05-06 15:09 35.16985 128.94737 28 ft 3 kts 22°
2026-05-06 15:09 35.16989 128.94739 28 ft 0 kts 21°
2026-05-06 15:09 35.16991 128.94739 28 ft 0 kts 21°
2026-05-06 15:09 35.16995 128.94741 28 ft 1 kts 22°
2026-05-06 15:10 35.16997 128.94743 28 ft 0 kts 22°